CDT,Max TemperatureF,Mean TemperatureF,Min TemperatureF,Max Dew PointF,MeanDew PointF,Min DewpointF,Max Humidity, Mean Humidity, Min Humidity, Max Sea Level PressureIn, Mean Sea Level PressureIn, Min Sea Level PressureIn, Max VisibilityMiles, Mean VisibilityMiles, Min VisibilityMiles, Max Wind SpeedMPH, Mean Wind SpeedMPH, Max Gust SpeedMPH,PrecipitationIn, CloudCover, Events, WindDirDegrees
2013-5-1,80,64,46,55,50,37,77,63,30,30.22,30.06,29.93,10,10,10,18,8,23,0.00,1,Rain,178
2013-5-2,55,45,35,46,37,34,100,81,58,30.26,30.23,30.20,10,9,2,17,12,23,0.47,4,Rain-Thunderstorm,22
2013-5-3,46,40,35,45,38,34,100,94,87,30.19,30.09,30.01,10,8,3,14,9,21,0.15,7,Rain,33
2013-5-4,66,54,42,46,43,39,93,77,46,30.07,30.03,30.00,10,10,10,13,6,18,0.01,4,Rain,62
2013-5-5,66,54,41,45,40,36,93,69,42,30.09,30.06,30.03,10,10,10,14,2,17,0.00,0,,61
2013-5-6,69,56,42,43,36,32,76,54,25,30.09,30.04,30.01,10,10,10,12,1,,0.00,2,,71
2013-5-7,71,58,44,48,39,34,76,57,28,30.08,30.04,30.02,10,10,10,9,2,,0.00,1,,34
2013-5-8,75,58,42,48,42,39,93,64,29,30.06,30.02,29.99,10,10,10,13,1,,0.00,1,,131
2013-5-9,66,54,41,57,45,41,100,84,59,29.98,29.95,29.91,10,9,5,20,4,29,0.01,5,Rain,55
2013-5-10,46,42,35,43,39,36,100,94,87,29.99,29.93,29.85,10,8,4,17,11,28,0.60,7,Rain,23
2013-5-11,50,42,35,48,35,27,100,81,46,30.02,29.92,29.79,10,6,0,23,6,40,0.00,4,Fog,263
2013-5-12,48,40,33,32,27,21,87,64,34,30.12,30.07,30.02,10,10,10,20,13,32,0.00,4,Rain,303
2013-5-13,57,42,28,34,30,25,100,73,35,30.18,30.11,29.97,10,9,4,13,5,16,0.00,3,,118
2013-5-14,78,61,44,54,43,32,63,55,32,29.96,29.76,29.58,10,10,7,18,9,24,0.02,2,Rain,183
2013-5-15,73,64,55,57,47,39,64,50,29,29.86,29.75,29.58,10,10,10,15,10,24,0.00,1,,279
2013-5-16,75,63,51,48,40,28,71,54,34,30.01,29.93,29.86,10,10,10,14,6,18,0.00,1,,334
2013-5-17,57,52,46,46,40,32,93,65,44,30.15,30.06,30.00,10,10,2,12,7,21,0.00,4,Rain,71
2013-5-18,73,60,48,59,48,43,94,77,57,30.10,30.05,29.99,10,9,7,12,5,,0.00,5,,86
2013-5-19,80,66,53,64,57,52,94,80,57,29.98,29.90,29.75,10,8,4,14,4,23,0.00,1,,145
2013-5-20,80,71,62,64,58,54,88,67,39,29.78,29.75,29.69,10,10,7,17,8,25,0.00,3,Rain,169
2013-5-21,77,68,57,63,58,54,94,80,50,29.73,29.69,29.65,10,10,10,18,10,26,0.05,5,Rain,189
2013-5-22,64,58,51,63,55,50,100,93,82,29.78,29.70,29.65,10,8,2,12,2,17,0.00,7,Rain,77
2013-5-23,51,44,37,52,43,32,100,89,71,30.33,30.04,29.79,10,9,5,16,7,25,0.00,6,Rain,29
2013-5-24,55,44,33,39,33,30,93,74,47,30.46,30.37,30.33,10,10,10,10,4,16,0.00,0,,32
2013-5-25,55,46,37,46,33,28,81,63,36,30.42,30.36,30.32,10,10,10,10,2,,0.00,2,,77
2013-5-26,62,48,35,43,36,32,93,71,42,30.32,30.27,30.19,10,10,4,16,3,21,0.00,3,,81
2013-5-27,53,50,46,50,44,36,100,84,62,30.19,30.05,29.92,10,6,1,17,8,23,0.00,8,Rain,89
2013-5-28,69,58,46,66,56,46,100,98,83,29.92,29.81,29.72,7,2,0,7,4,,0.08,8,Fog-Rain,107
2013-5-29,78,66,55,66,61,55,100,89,57,29.94,29.87,29.79,10,5,0,14,4,,0.00,5,Fog,168
2013-5-30,82,72,60,66,63,59,94,79,54,29.92,29.87,29.78,10,10,4,21,7,34,0.17,3,Rain,174
2013-5-31,73,66,60,64,61,59,100,89,61,29.86,29.79,29.73,10,10,4,18,8,23,0.19,6,Rain,177